Wind_Speed
22 21 18 17 18 17 18 18 19 19 20 20 21 20 20 20 19 19 17 14 14 13 12 11 10 10 10 10 11 13 13 15 16 17 17 17 18 17 16 18 18 18 17
28 22 20 20 20 19 18 18 18 18 19 20 20 18 18 19 18 16 15 13 11 11 11 9 11 10 11 11 11 12 13 15 17 17 16 17 18 17 15 15 17 18 16
28 23 22 22 21 19 17 18 19 18 18 18 17 17 17 16 15 14 12 10 9 8 10 9 9 10 11 11 12 13 13 15 16 16 15 14 17 15 14 12 14 15 15
28 25 24 23 22 20 18 17 18 18 18 17 16 15 15 14 13 12 11 9 9 7 7 8 9 9 11 11 13 13 15 15 15 15 15 14 13 14 14 12 13 13 14
28 26 26 24 23 20 19 17 17 17 17 16 15 14 14 15 14 11 9 8 7 7 7 6 8 9 9 11 12 13 15 16 13 16 15 15 17 15 15 15 11 13 14
28 26 26 24 23 21 19 18 17 17 16 15 14 13 12 12 12 11 8 7 6 6 6 5 6 7 10 12 12 12 16 15 13 15 12 13 14 14 16 15 13 12 11
28 26 24 23 22 20 19 18 18 17 17 15 13 12 11 10 9 9 7 7 6 5 5 5 6 9 11 13 12 12 12 12 14 12 10 12 13 13 14 15 14 13 11
30 27 24 22 20 19 18 17 17 16 15 15 14 13 11 9 8 7 7 6 6 6 4 3 6 8 12 12 12 12 11 11 9 7 12 13 13 14 14 14 14 13 13
28 27 25 23 22 19 17 17 16 16 15 14 14 14 12 10 8 6 5 5 5 5 5 5 4 6 10 10 11 11 11 9 8 8 10 14 13 14 15 14 15 13 13
27 26 25 23 23 21 19 17 16 15 14 13 12 12 12 10 8 7 6 6 5 4 4 4 3 4 8 9 10 11 11 8 6 7 11 17 14 14 15 17 16 14 14
25 25 24 23 22 21 19 17 15 14 13 12 11 10 10 9 9 7 5 5 5 5 4 4 5 5 5 8 10 11 11 11 9 7 10 14 15 14 16 16 17 16 15
24 26 24 23 22 20 19 18 17 14 14 13 12 12 11 9 8 6 6 5 6 4 5 5 6 6 7 9 11 12 12 12 12 9 10 12 15 16 16 16 16 16 16
29 26 26 24 22 21 20 19 18 17 16 15 13 12 11 10 10 8 10 10 8 7 6 7 7 9 9 9 11 12 12 14 15 14 11 11 16 17 16 15 16 16 16
26 27 26 25 23 22 20 20 17 17 15 13 13 13 12 11 11 9 8 10 12 11 9 9 10 11 12 12 12 13 14 14 13 15 12 12 13 18 17 16 17 17 16
27 28 28 25 24 22 21 20 19 17 15 14 13 12 15 11 13 11 12 12 11 12 12 12 12 13 13 13 15 16 15 14 15 16 15 13 16 18 17 17 18 19 18
29 29 27 27 24 21 20 18 17 17 16 17 13 12 16 14 14 14 13 13 12 13 13 14 14 14 15 16 16 19 17 15 14 15 16 13 14 18 19 18 19 19 19
33 31 28 28 25 24 18 13 16 15 14 17 15 16 17 16 17 14 16 15 13 13 14 14 16 16 18 20 21 19 18 18 18 19 18 19 17 17 20 19 21 20 20
28 29 27 26 24 15 14 14 10 9 9 9 9 9 14 15 19 17 17 20 16 15 16 20 20 19 19 20 20 23 25 22 20 18 21 19 18 18 20 18 19 21 20
29 26 26 18 15 16 18 13 10 5 7 7 3 7 8 11 12 16 14 15 14 13 15 15 16 20 19 18 18 17 17 20 28 22 21 20 20 20 21 21 22 22 23
24 23 24 15 9 11 12 11 11 8 5 6 1 4 5 5 8 10 15 14 11 11 12 15 17 17 16 17 15 16 15 15 17 20 19 19 18 19 21 21 22 24 24
20 21 21 12 12 14 11 11 7 7 0 2 3 5 6 6 7 8 9 9 9 10 12 12 14 18 18 17 10 11 17 18 17 18 18 20 20 19 19 21 23 24 23
21 21 18 11 13 12 12 6 3 3 3 6 7 4 2 3 2 4 7 9 8 10 10 11 11 13 13 15 7 4 1 2 10 15 17 17 19 19 20 21 21 21 22
24 21 12 9 15 15 8 11 9 7 4 3 5 3 3 3 3 4 7 10 10 8 10 10 11 13 13 12 18 5 2 3 2 4 10 10 13 18 18 21 18 17 21
24 16 13 13 15 14 12 11 6 2 1 3 5 7 9 6 5 6 8 8 8 8 9 9 9 12 13 12 14 19 5 3 2 3 2 8 10 14 18 18 14 16 16
22 18 15 14 15 12 9 5 3 5 7 8 7 7 6 6 7 8 7 7 8 7 8 9 9 10 12 12 12 8 18 6 3 3 3 5 11 7 2 8 11 11 13
21 19 17 15 15 12 9 3 4 5 7 7 7 7 6 8 10 9 9 7 7 7 6 5 3 7 9 11 13 13 9 6 7 8 1 0 3 6 6 4 1 5 7
Wind_Direction
165 165 163 153 143 133 129 135 135 134 132 132 131 132 135 142 150 149 146 140 138 135 129 127 127 119 128 125 126 128 129 127 128 126 130 130 126 123 127 124 126 122 121
160 162 162 159 150 141 136 137 137 136 134 132 131 131 135 140 144 146 145 144 143 137 132 131 128 127 129 130 132 129 132 132 132 130 131 130 126 124 126 127 126 126 125
158 159 160 158 155 144 140 141 140 139 140 139 135 135 137 141 144 146 145 144 137 146 140 136 135 134 137 140 139 135 137 136 135 132 134 137 129 128 130 131 131 130 130
158 159 159 158 154 149 146 145 142 141 142 142 139 137 139 141 141 140 141 138 138 137 147 155 150 148 148 150 145 141 142 141 143 141 133 139 145 136 132 140 142 137 134
160 160 160 160 157 155 150 149 147 145 145 144 141 138 140 141 142 139 137 136 136 133 136 143 162 157 155 158 152 153 151 143 145 142 138 141 144 145 142 145 136 137 144
160 161 161 162 161 161 156 153 151 149 149 149 145 145 146 148 147 147 144 138 134 133 129 140 168 156 165 167 163 159 156 159 148 155 151 157 155 154 150 148 152 153 151
161 164 163 164 163 163 162 159 157 155 155 156 151 151 151 154 153 152 151 150 139 136 151 164 161 161 170 170 164 163 160 170 175 173 180 175 169 167 163 156 155 155 155
162 163 164 166 164 166 165 164 162 159 158 160 157 155 155 163 164 161 158 161 156 145 149 175 182 161 167 173 172 168 165 161 173 192 190 181 178 171 170 168 172 165 165
165 165 167 166 164 166 166 165 165 165 167 168 164 159 160 165 168 167 167 161 169 170 166 180 191 171 172 176 182 180 177 179 188 200 204 197 185 180 178 180 181 174 173
171 172 171 170 168 166 171 171 170 170 170 173 169 167 165 163 163 166 169 173 174 188 209 196 209 192 184 183 190 192 190 197 200 226 215 201 197 192 190 187 187 184 184
178 180 176 174 174 171 174 172 172 174 174 177 176 182 177 177 174 178 184 187 182 195 201 219 207 211 197 196 198 198 202 207 209 215 204 205 210 203 198 198 197 191 190
183 186 183 180 180 176 178 177 175 176 181 182 187 190 196 192 189 186 209 212 206 206 210 213 223 223 212 202 203 209 208 216 221 229 208 217 218 216 209 211 208 199 196
188 189 189 187 187 184 185 185 181 182 189 192 196 200 205 209 212 224 231 230 237 225 219 215 220 229 232 223 216 215 216 222 222 217 229 238 223 218 220 217 215 213 207
192 196 194 195 195 194 193 193 192 192 197 209 207 205 203 207 219 227 222 221 220 225 227 225 219 228 232 236 229 222 225 228 230 228 230 235 223 227 227 219 219 217 217
192 197 198 199 201 200 202 201 198 198 197 205 229 230 242 222 236 246 238 228 226 229 228 233 235 241 244 242 241 240 230 232 232 232 233 236 224 228 236 231 224 219 219
195 199 198 199 203 201 207 208 212 209 203 216 220 232 246 244 251 241 243 240 244 245 246 243 245 244 248 247 244 238 238 242 247 237 231 234 240 234 235 238 231 227 226
202 201 200 203 204 204 208 219 215 219 222 239 232 235 241 249 250 261 259 256 262 267 254 245 241 246 249 249 246 247 243 250 250 246 244 241 242 244 235 244 239 238 238
201 202 200 202 210 208 211 215 215 213 217 235 241 246 247 249 248 262 256 261 261 258 251 253 252 255 250 249 250 248 249 253 247 252 247 246 240 244 238 243 241 243 243
207 202 203 202 209 189 221 219 197 238 245 227 279 248 266 262 263 239 256 262 270 266 260 256 252 251 245 248 251 254 250 252 249 255 251 245 244 245 248 252 252 252 249
205 202 194 199 210 205 212 197 203 173 238 229 263 302 286 295 253 254 263 269 269 267 267 259 256 261 251 254 258 256 253 253 247 244 250 247 248 251 255 260 260 255 257
189 191 188 195 195 198 201 167 183 223 97 74 324 316 274 274 266 272 250 267 270 270 270 264 263 260 264 252 245 258 260 258 251 243 251 250 253 259 262 265 267 268 270
174 180 184 190 181 170 171 174 231 250 33 348 330 332 340 311 299 279 270 273 273 279 273 266 257 257 255 244 207 208 323 301 246 251 247 261 258 259 256 259 266 272 279
167 171 169 162 161 167 159 125 126 129 273 326 36 70 23 24 341 325 302 299 291 279 273 270 262 247 243 242 218 183 134 212 331 275 246 268 264 260 258 250 262 271 278
165 166 163 155 165 162 154 141 148 129 122 78 61 93 89 61 19 344 321 307 301 299 296 287 264 248 241 235 222 226 232 157 171 334 7 33 344 276 260 247 255 266 271
165 164 162 159 159 160 163 144 138 106 106 113 112 119 76 37 7 347 332 324 313 310 308 295 275 241 233 234 216 203 215 213 193 32 298 331 3 358 276 246 261 261 259
156 159 159 160 159 158 157 143 113 119 115 101 92 79 52 29 15 8 355 336 321 321 328 317 295 226 226 231 233 223 197 183 204 207 210 282 24 352 50 75 205 265 267
Height
796 799 801 804 806 807 807 808 809 810 812 813 815 817 820 821 823 825 825 827 826 827 828 828 829 830 831 833 833 834 835 835 836 837 839 840 841 842 844 844 844 846 848
793 798 801 805 805 807 808 810 811 813 814 816 817 819 822 823 825 827 827 828 827 829 829 831 831 832 833 835 835 836 837 838 839 840 841 843 843 845 847 847 846 847 849
793 798 802 805 807 808 810 812 813 815 816 817 818 820 822 823 825 827 827 828 829 829 830 832 833 834 835 836 837 838 839 840 841 842 843 844 845 846 848 850 849 849 850
794 798 802 805 807 810 811 813 814 816 818 820 821 822 823 825 826 827 828 829 830 831 831 833 833 836 836 838 839 840 840 842 843 843 845 845 847 847 848 851 852 852 852
795 798 801 804 808 810 812 814 815 817 819 821 823 824 825 826 827 829 830 831 831 832 832 834 834 835 837 839 840 841 843 844 845 845 846 847 847 848 849 850 853 854 854
797 800 802 805 808 811 812 814 816 818 819 821 823 824 826 827 828 829 830 831 832 833 834 834 834 835 835 839 841 842 843 845 845 846 847 848 849 850 850 851 853 855 856
798 802 805 807 809 812 813 815 816 818 820 821 823 825 826 828 829 830 830 831 833 834 835 835 835 836 836 838 841 842 844 845 846 847 847 848 849 851 852 852 854 856 858
799 803 805 808 811 813 814 816 818 819 821 822 823 825 827 830 830 830 830 832 833 834 835 836 835 837 837 838 840 842 844 845 847 848 848 848 850 851 853 854 855 856 858
802 804 806 808 809 813 815 817 819 819 821 823 823 824 826 828 830 831 831 832 833 834 836 835 835 837 838 839 841 842 844 846 847 848 848 849 850 851 853 854 856 857 859
803 805 807 809 809 811 814 817 818 820 822 824 825 825 826 827 828 830 831 832 833 835 836 836 834 836 838 841 842 843 845 846 846 848 848 849 850 851 853 854 855 856 858
804 806 807 809 811 812 815 817 819 821 822 825 826 827 828 827 827 829 830 831 832 833 834 836 837 837 837 841 843 844 845 845 846 847 847 849 851 852 853 854 855 855 857
804 805 807 809 811 812 814 816 817 820 822 824 825 826 827 828 828 828 829 831 832 833 833 835 836 836 837 840 841 842 843 844 845 846 847 849 850 851 852 854 855 856 856
801 805 807 809 810 812 813 815 816 818 820 821 823 824 825 827 828 828 828 830 831 831 832 833 834 836 836 837 839 839 841 842 842 844 845 847 848 850 851 852 854 856 856
801 804 807 808 809 811 812 813 815 817 820 822 822 823 824 825 827 826 826 828 828 829 830 830 832 834 836 836 837 838 839 840 841 842 843 844 845 848 849 850 852 854 855
799 801 803 807 808 810 812 812 812 815 818 821 821 823 823 823 826 825 826 827 827 828 828 829 830 831 833 834 835 836 837 837 839 840 841 842 843 845 848 848 849 851 852
795 797 801 802 804 807 810 810 811 813 815 817 818 819 820 820 823 824 825 825 825 825 825 826 828 829 830 831 832 833 833 835 836 837 838 839 841 842 844 846 847 848 849
790 794 797 798 801 802 807 810 810 813 815 815 815 817 818 818 820 822 822 822 822 822 823 824 825 826 827 828 829 829 830 831 833 834 835 836 837 838 840 841 843 845 846
789 792 795 796 797 806 807 805 811 812 811 812 813 814 814 815 816 817 819 820 821 821 821 822 822 823 824 824 824 825 826 828 829 831 832 834 834 836 837 839 840 842 843
787 791 794 799 800 804 808 806 809 811 811 811 811 811 812 813 814 816 817 818 818 818 819 819 819 819 819 821 822 822 823 824 825 827 828 830 831 832 833 835 837 839 839
789 793 795 798 800 800 802 807 809 810 812 810 810 812 812 813 813 814 815 816 816 816 816 816 816 816 816 817 819 819 820 820 821 822 824 826 828 829 830 832 833 834 835
790 793 798 800 800 801 803 806 809 809 809 809 812 812 812 813 813 813 814 814 813 814 813 813 813 812 812 813 816 816 816 817 817 818 819 821 823 824 826 828 829 830 830
789 793 797 800 800 804 807 810 811 810 811 811 812 812 813 813 813 813 812 812 811 810 810 809 808 808 808 810 812 815 815 814 812 813 815 815 816 819 821 824 825 826 827
789 794 799 802 804 806 809 809 810 812 812 813 813 813 813 813 813 811 811 810 808 807 806 805 805 805 805 806 808 810 814 813 810 808 809 810 812 814 816 819 822 823 823
789 795 799 801 804 809 810 809 811 812 813 814 814 814 814 814 813 812 810 808 806 804 803 802 802 801 802 803 806 807 808 809 811 813 809 808 809 810 812 816 818 820 819
790 796 800 802 805 808 811 812 812 813 815 814 815 815 814 814 813 810 809 806 804 803 802 800 798 798 799 800 802 803 805 809 808 812 812 808 809 812 812 813 816 816 817
790 795 798 801 804 806 809 811 812 813 814 814 815 815 814 813 812 810 808 806 804 802 800 799 797 796 797 797 799 801 802 805 808 810 811 811 811 813 813 813 814 814 815